Retour au catalogue

COSMOS 795

ActifMilitaireLEO
NORAD 8611·PAYLOAD·🇷🇺 Russia

Lancé Jan 28, 1976 depuis Plesetsk Cosmodrome

Loading…

Prochains Passages (prochaines 24 heures)

TLE

FraisSource: Space-Track

Époque: Sep 14, 2026, 10:38 UTC

1 08611U 76008E   26257.44352413 -.00000026  00000-0 -74773-4 0  9997
2 08611  74.0523  77.4712 0020284 273.3280  86.5448 12.45795560302349

Suivez COSMOS 795 en temps réel avec AllMySat

Download on the App Store